Location: Newark
(43.0000°N, 1.6781°W)
Time: 06:34:47
(UTC+00:00)

Transit 4A - Visible Passes

Search period start: 20 April 2021 00:00
Search period end: 30 April 2021 00:00
Orbit: 869 x 975 km, 66.8° (Epoch: 19 April)

Date Brightness Start Highest point End Pass type
(mag) Time Alt. Az. Time Alt. Az. Time Alt. Az.
20 Apr 9.3 00:59:37 30° NW 00:59:51 30° NW 01:05:10 10° NNE visible
20 Apr 8.8 23:24:43 41° NE 23:24:43 41° NE 23:28:34 10° NNE visible
21 Apr 9.6 01:08:10 21° WNW 01:09:29 23° NW 01:14:11 10° N visible
21 Apr 10.0 21:49:44 12° ENE 21:49:44 12° ENE 21:50:20 10° ENE visible
21 Apr 8.5 23:33:11 53° N 23:33:11 53° N 23:37:52 10° NNE visible
22 Apr 10.0 01:16:39 14° WNW 01:19:12 17° NW 01:23:06 10° N visible
22 Apr 9.5 21:58:07 20° ENE 21:58:07 20° ENE 22:00:17 10° NE visible
22 Apr 8.6 23:41:34 49° NW 23:41:34 49° NW 23:47:05 10° NNE visible
23 Apr 10.3 01:26:09 10° WNW 01:29:00 13° NNW 01:31:50 10° N visible
23 Apr 8.9 22:06:23 32° ENE 22:06:23 32° ENE 22:09:57 10° NE visible
23 Apr 9.0 23:49:50 35° WNW 23:50:38 36° NW 23:56:14 10° NNE visible
24 Apr 10.6 01:37:57 10° NW 01:38:54 10° NNW 01:39:50 10° NNW visible
24 Apr 8.2 22:14:30 55° ENE 22:14:30 55° ENE 22:19:26 10° NE visible
24 Apr 9.6 23:57:55 22° WNW 00:00:12 27° NW 00:05:17 10° NNE visible
25 Apr 9.6 20:38:58 14° E 20:38:58 14° E 20:40:31 10° ENE visible
25 Apr 7.8 22:22:22 82° SW 22:22:40 88° WNW 22:28:47 10° NNE visible
26 Apr 10.0 00:05:47 11° W 00:09:52 20° NW 00:14:17 10° N visible
26 Apr 9.0 20:46:30 23° E 20:46:30 23° E 20:50:50 10° NE visible
26 Apr 8.2 22:29:52 40° WSW 22:32:00 63° NW 22:38:04 10° NNE visible
27 Apr 10.4 00:16:02 10° WNW 00:19:36 16° NW 00:23:08 10° N visible
27 Apr 8.5 20:53:23 29° SE 20:55:13 35° ESE 21:00:40 10° NE visible
27 Apr 8.8 22:36:42 16° WSW 22:41:26 45° NW 22:47:15 10° NNE visible
28 Apr 10.6 00:27:08 10° NW 00:29:26 12° NNW 00:31:44 10° N visible
28 Apr 10.8 04:06:40 10° N 04:08:44 12° NNE 04:10:48 10° NE visible
28 Apr 8.0 20:58:22 10° S 21:04:23 51° ESE 21:10:15 10° NE visible
28 Apr 9.4 22:45:26 10° WSW 22:50:57 32° NW 22:56:22 10° NNE visible
29 Apr 10.6 04:15:13 10° N 04:18:35 15° NNE 04:21:53 10° ENE visible
29 Apr 7.8 21:07:23 10° SSW 21:13:36 74° ESE 21:19:41 10° NE visible
29 Apr 9.9 22:55:37 10° W 23:00:33 24° NW 23:05:25 10° N visible
